Home   Weather   Riffa   Past weeks

Flag for Bahrain Past Weather in Riffa, Bahrain — Yesterday and Last 2 Weeks

Now
91 °F

Sunny.


Feels Like: 108 °F
Forecast: 92 / 109 °F
Wind: 5 mph from Southeast

Location: Bahrain International Airport

Current Time: Jul 23, 2017 at 6:06:47 am

Latest Report: Jul 23, 2017 at 5:30 am


Visibility: 6 mi

Pressure: 29.42 "Hg

Humidity: 67%

Dew Point: 79 °F

Location of RiffaLocation

Past Weather in Riffa — Graph

°F

Riffa Temperature Yesterday

Maximum temperature yesterday: 106 °F (at 11:00 am)
Minimum temperature yesterday: 91 °F (at 1:30 am)
Average temperature yesterday: 98 °F

High & Low Weather Summary for the Past Weeks

 TemperatureHumidityPressure
High113 °F (Jul 13, 1:00 pm)89% (Jul 8, 11:00 pm)29.53 "Hg (Jul 8, 11:00 pm)
Low91 °F (Jul 8, 4:00 am)5% (Jul 13, 1:00 pm)29.36 "Hg (Jul 8, 3:00 am)
Average98 °F57%29.44 "Hg
* Reported Jul 8 3:00 am — Jul 23 3:30 am, Riffa. Weather by CustomWeather, © 2017

Note: Actual official high and low records may vary slightly from our data, if they occured in-between our weather recording intervals... More about our weather records

Advertising

Riffa Weather History for the Previous 24 Hours

Scroll right to see more
 ConditionsComfort  
Time TempWeatherWind HumidityBarometerVisibility
3:30 am
Sun, Jul 23
91 °FPassing clouds.3 mph59%29.42 "HgN/A
3:00 am95 °FClear.2 mph50%29.42 "Hg10 mi
2:30 am95 °FPassing clouds.5 mph53%29.42 "HgN/A
2:00 am93 °FClear.5 mph67%29.42 "Hg10 mi
1:30 am95 °FPassing clouds.6 mph63%29.42 "HgN/A
12:30 am95 °FPassing clouds.6 mph63%29.42 "HgN/A
12:00 am97 °FPassing clouds.8 mph60%29.42 "HgN/A
11:30 pm
Sat, Jul 22
99 °FClear.6 mph50%29.42 "Hg10 mi
11:00 pm99 °FClear.7 mph47%29.42 "Hg10 mi
10:30 pm99 °FPassing clouds.3 mph42%29.45 "HgN/A
9:30 pm95 °FClear.5 mph50%29.45 "Hg10 mi
8:30 pm100 °FClear.2 mph33%29.45 "Hg10 mi
7:30 pm102 °FClear.5 mph33%29.45 "Hg10 mi
7:00 pm100 °FClear.5 mph37%29.42 "Hg10 mi
6:30 pm99 °FClear.6 mph50%29.42 "Hg10 mi
5:30 pm102 °FSunny.9 mph42%29.42 "Hg10 mi
5:00 pm104 °FSunny.9 mph33%29.42 "Hg10 mi
4:30 pm104 °FSunny.7 mph35%29.42 "Hg10 mi
4:00 pm102 °FSunny.7 mph48%29.42 "Hg10 mi
3:30 pm102 °FPassing clouds.8 mph51%29.45 "HgN/A
3:00 pm102 °FSunny.8 mph48%29.45 "Hg10 mi
2:30 pm102 °FSunny.8 mph48%29.45 "Hg10 mi
2:00 pm102 °FSunny.8 mph48%29.45 "Hg10 mi
1:30 pm102 °FSunny.12 mph48%29.45 "Hg10 mi
1:00 pm102 °FSunny.10 mph48%29.47 "Hg10 mi
12:30 pm102 °FSunny.13 mph51%29.47 "Hg10 mi
12:00 pm102 °FSunny.10 mph54%29.47 "Hg10 mi
11:30 am102 °FSunny.9 mph54%29.47 "Hg10 mi
11:00 am106 °FPassing clouds.7 mph36%29.47 "HgN/A
10:30 am104 °FPassing clouds.6 mph45%29.50 "HgN/A
10:00 am102 °FPassing clouds.5 mph51%29.50 "HgN/A
9:30 am102 °FPassing clouds.5 mph48%29.47 "HgN/A
9:00 am100 °FPassing clouds.5 mph42%29.47 "HgN/A
8:30 am100 °FPassing clouds.6 mph47%29.47 "HgN/A
7:30 am97 °FPassing clouds.5 mph60%29.47 "HgN/A
6:30 am93 °FPassing clouds.3 mph71%29.45 "HgN/A
6:00 am93 °FPassing clouds.3 mph71%29.45 "HgN/A
Weather by CustomWeather, © 2017

See weather overviewHow to use our weather pages